Погода в Пегу

Мьянма     17°19′24″N   96°29′19″E
темп.,
°C
ветер,
м/с
пор.,
м/с
влажн.,
%
обл.,
%
осадки,
мм/ч
давл.,
гПа
погр.,
м
22 апреля, чт
чт2200:30+29зюз46643 0.0 1009478
03:30+28зюз24710 0.0 1008414
06:30+27ю237439 0.0 1010320
09:30+33ююз33507 0.0 10111176
12:30+37ююз32368 0.0 10082313
15:30+38ююв433149 0.0 10042784
18:30+33ю79491 0.0 1005641
21:30+30ююз596325 0.0 1007714
23 апреля, пт
пт2300:30+28зюз476842 0.0 1007477
03:30+27юз24745 0.0 1007444
06:30+27ю35731 0.0 1008445
09:30+33ююз33480 0.0 10101089
12:30+38ююз43314 0.0 10062055
15:30+39ю33256 0.0 10032793
18:30+33ююв79495 0.0 1004715
21:30+30ююз58645 0.0 1007628
24 апреля, сб
сб2400:30+28з35685 0.0 1007529
03:30+27юз357314 0.0 1006530
06:30+27ююз3473100 0.0 1008471
09:30+32ююз3353100 0.0 10101062
12:30+37ююз3335100 0.0 10071725
15:30+39ююз3327100 0.0 10032444
18:30+32ю7952100 0.0 1005642
21:30+31ююз4762100 0.0 1008579
25 апреля, вс
вс2500:30+29зюз3664100 0.0 1008555
03:30+28юз3567100 0.0 1007566
06:30+28юз3569100 0.0 1009529
09:30+32юз3354100 0.0 10101286
12:30+37юз3338100 0.0 10082168
15:30+39ююз433024 0.0 10042694
18:30+33ю810512 0.0 1006644
21:30+31ю69602 0.0 1009808
26 апреля, пн
пн2600:30+29зюз376510 0.0 1008642
03:30+28юз36725 0.3 1008575
06:30+28юз25718 0.3 1009515
09:30+33юз334895 0.0 10101382
12:30+37ююз333444 0.0 10072192
15:30+40ю442982 0.0 10032916
18:30+32ю895310 0.1 1006973
21:30+30зюз58596 0.6 1008683